| time (UTC) | temp F | wind direction | speed knots | gust knots | rain 1hr in | rain 24hr in | rain mn in | humidity % | barometer mb |
| 20260504081517 | 44 | 217 | 2.6 | 4.3 | 0.00 | 0.00 | 0.00 | 61 | 1009.8 |
| 20260504050013 | 48 | 252 | 0.9 | 1.7 | 0.00 | 0.00 | 0.00 | 56 | 1009.7 |
| 20260504044529 | 49 | 239 | 1.7 | 4.3 | 0.00 | 0.00 | 0.00 | 54 | 1009.6 |
| 20260504043023 | 50 | 285 | 0.0 | 1.7 | 0.00 | 0.00 | 0.00 | 55 | 1009.7 |
| 20260504041524 | 51 | 219 | 0.0 | 4.3 | 0.00 | 0.00 | 0.00 | 50 | 1009.8 |
| 20260504040010 | 51 | 210 | 3.5 | 6.1 | 0.00 | 0.00 | 0.00 | 49 | 1009.7 |
| 20260504034514 | 52 | 217 | 1.7 | 2.6 | 0.00 | 0.00 | 0.00 | 47 | 1009.6 |
| 20260504033016 | 52 | 269 | 1.7 | 3.5 | 0.00 | 0.00 | 0.00 | 47 | 1009.8 |
| 20260504031526 | 52 | 205 | 1.7 | 4.3 | 0.00 | 0.00 | 0.00 | 48 | 1010.0 |
| 20260504030026 | 51 | 316 | 0.0 | 1.7 | 0.00 | 0.00 | 0.00 | 50 | 1010.1 |
| 20260504024510 | 51 | 240 | 0.9 | 6.1 | 0.00 | 0.00 | 0.00 | 50 | 1010.3 |
| 20260504023016 | 51 | 300 | 4.3 | 13.0 | 0.00 | 0.00 | 0.00 | 50 | 1010.5 |
| 20260504021520 | 51 | 316 | 2.6 | 8.7 | 0.00 | 0.00 | 0.00 | 51 | 1010.7 |
| 20260504020024 | 50 | 314 | 3.5 | 7.0 | 0.00 | 0.00 | 0.00 | 52 | 1010.5 |
| 20260504014507 | 49 | 348 | 1.7 | 6.1 | 0.00 | 0.00 | 0.00 | 54 | 1010.5 |
| 20260504013018 | 50 | 317 | 0.0 | 1.7 | 0.00 | 0.00 | 0.00 | 52 | 1010.4 |
| 20260504011520 | 50 | 340 | 0.9 | 4.3 | 0.00 | 0.00 | 0.00 | 51 | 1010.2 |
| 20260504010023 | 50 | 316 | 0.0 | 1.7 | 0.00 | 0.00 | 0.00 | 53 | 1010.2 |
| 20260504004529 | 50 | 316 | 0.0 | 1.7 | 0.00 | 0.00 | 0.00 | 51 | 1010.1 |
| 20260504003008 | 51 | 316 | 0.0 | 1.7 | 0.00 | 0.00 | 0.00 | 50 | 1009.7 |
| 20260504001518 | 52 | 219 | 0.0 | 1.7 | 0.00 | 0.00 | 0.00 | 46 | 1009.4 |
| 20260504000046 | 53 | 219 | 0.9 | 2.6 | 0.00 | 0.00 | 0.00 | 44 | 1009.2 |
| 20260503234526 | 53 | 226 | 1.7 | 4.3 | 0.00 | 0.00 | 0.00 | 42 | 1009.2 |
| 20260503233027 | 55 | 240 | 1.7 | 4.3 | 0.00 | 0.00 | 0.00 | 40 | 1009.0 |
| 20260503231512 | 54 | 324 | 0.9 | 4.3 | 0.00 | 0.00 | 0.00 | 42 | 1009.0 |
| 20260503230020 | 54 | 305 | 2.6 | 6.1 | 0.00 | 0.00 | 0.00 | 40 | 1009.0 |
| 20260503224522 | 55 | 330 | 3.5 | 7.0 | 0.00 | 0.00 | 0.00 | 40 | 1009.1 |
| 20260503223035 | 55 | 278 | 0.9 | 6.1 | 0.00 | 0.00 | 0.00 | 40 | 1009.2 |
| 20260503221525 | 55 | 323 | 3.5 | 7.8 | 0.00 | 0.00 | 0.00 | 42 | 1009.3 |
| 20260503220016 | 54 | 359 | 2.6 | 10.4 | 0.00 | 0.00 | 0.00 | 42 | 1009.4 |
| 20260503214524 | 53 | 303 | 3.5 | 9.6 | 0.00 | 0.00 | 0.00 | 45 | 1009.5 |
| 20260503213024 | 53 | 279 | 3.5 | 7.8 | 0.00 | 0.00 | 0.00 | 42 | 1009.5 |
| 20260503211527 | 52 | 314 | 2.6 | 11.3 | 0.00 | 0.00 | 0.00 | 44 | 1009.5 |
| 20260503210027 | 52 | 312 | 7.8 | 13.0 | 0.00 | 0.00 | 0.00 | 42 | 1009.6 |
| 20260503204518 | 54 | 349 | 3.5 | 11.3 | 0.00 | 0.00 | 0.00 | 39 | 1009.2 |
| 20260503203029 | 54 | 346 | 7.8 | 16.5 | 0.00 | 0.00 | 0.00 | 39 | 1009.3 |
| 20260503201532 | 53 | 336 | 6.1 | 15.6 | 0.00 | 0.00 | 0.00 | 40 | 1009.4 |
| 20260503200012 | 53 | 304 | 6.1 | 13.9 | 0.00 | 0.00 | 0.00 | 38 | 1009.5 |
| 20260503194518 | 53 | 346 | 7.0 | 13.0 | 0.00 | 0.00 | 0.00 | 39 | 1009.6 |
| 20260503193028 | 53 | 345 | 4.3 | 10.4 | 0.00 | 0.00 | 0.00 | 39 | 1009.7 |
| 20260503191525 | 53 | 314 | 6.1 | 13.0 | 0.00 | 0.00 | 0.00 | 37 | 1009.9 |
| 20260503190012 | 53 | 304 | 6.1 | 13.0 | 0.00 | 0.00 | 0.00 | 36 | 1010.0 |
| 20260503184514 | 53 | 320 | 6.1 | 14.8 | 0.00 | 0.00 | 0.00 | 35 | 1010.4 |
| 20260503183025 | 53 | 338 | 7.8 | 13.9 | 0.00 | 0.00 | 0.00 | 35 | 1010.6 |
| 20260503181527 | 52 | 297 | 7.0 | 19.1 | 0.00 | 0.00 | 0.00 | 36 | 1010.7 |
| 20260503180029 | 51 | 351 | 5.2 | 13.0 | 0.00 | 0.00 | 0.00 | 38 | 1010.9 |
| 20260503174516 | 50 | 355 | 7.8 | 13.0 | 0.00 | 0.00 | 0.00 | 37 | 1011.0 |
| 20260503173036 | 51 | 352 | 9.6 | 15.6 | 0.00 | 0.00 | 0.00 | 36 | 1011.3 |
| 20260503171533 | 51 | 307 | 6.1 | 12.2 | 0.00 | 0.00 | 0.00 | 38 | 1011.4 |